User: anonymous   Login
Location: Columbia
(38.9520°N, 92.3340°W)
Time: 20:23:05
(UTC-05:00)
Language:

Cosmos 1633 - Orbit

View from above orbital plane
View from above orbital plane
View from above satellite
View from above satellite

Ground track
Ground track

The orbit data is extracted from the following two-line orbital elements,

1 15592U 85020A   14297.14757475  .00012030  00000-0  55419-3 0  5843
2 15592 082.5433 203.8332 0016721 350.1965 126.0629 15.20043379616863
Epoch (UTC): 24 October 2014 03:32:30
Eccentricity: 0.0016721
inclination: 82.5433°
perigee height: 494 km
apogee height: 517 km
right ascension of ascending node: 203.8332°
argument of perigee: 350.1965°
revolutions per day: 15.20043379
mean anomaly at epoch: 126.0629°
orbit number at epoch: 61686

The dashed part of the orbit path shows where the satellite is in the earth's shadow,  

DLR